FW8892 Weather Reports


Display with metric or nautical units.
time (UTC)temp
F
wind
direction
speed
MPH
gust
MPH
rain 1hr
in
rain 24hr
in
rain mn
in
humidity
%
barometer
mb
20260510165029 82 212 3.0 10.0 0.00 0.00 0.00 48 1016.9
20260510164540 82 219 4.0 10.0 0.00 0.00 0.00 46 1017.0
20260510164029 82 271 2.0 9.0 0.00 0.00 0.00 50 1016.9
20260510163530 82 238 2.0 9.0 0.00 0.00 0.00 51 1016.8
20260510163047 82 220 3.0 7.0 0.00 0.00 0.00 52 1016.9
20260510162530 82 239 1.0 6.0 0.00 0.00 0.00 56 1016.8
20260510162027 81 281 2.0 6.0 0.00 0.00 0.00 53 1016.8
20260510161547 81 304 1.0 6.0 0.00 0.00 0.00 55 1016.8
20260510161028 81 221 2.0 8.0 0.00 0.00 0.00 55 1016.7
20260510160528 81 254 2.0 8.0 0.00 0.00 0.00 57 1017.0
20260510160100 81 229 1.0 6.0 0.00 0.00 0.00 56 1016.7
20260510155529 80 190 2.0 6.0 0.00 0.00 0.00 56 1016.7
20260510155029 80 236 2.0 6.0 0.00 0.00 0.00 60 1016.7
20260510154541 79 243 2.0 8.0 0.00 0.00 0.00 58 1016.7
20260510154028 79 233 3.0 8.0 0.00 0.00 0.00 58 1016.6
20260510153533 79 196 2.0 9.0 0.00 0.00 0.00 57 1016.6
20260510153043 79 221 2.0 9.0 0.00 0.00 0.00 57 1016.5
20260510152529 79 224 1.0 8.0 0.00 0.00 0.00 57 1016.6
20260510152027 80 252 1.0 8.0 0.00 0.00 0.00 59 1016.5
20260510151542 80 199 1.0 6.0 0.00 0.00 0.00 59 1016.4
20260510151029 79 265 2.0 7.0 0.00 0.00 0.00 59 1016.5
20260510150531 79 199 2.0 7.0 0.00 0.00 0.00 61 1016.4
20260510150052 78 200 1.0 7.0 0.00 0.00 0.00 61 1016.3
20260510145527 78 253 1.0 7.0 0.00 0.00 0.00 63 1016.6
20260510145028 77 232 2.0 7.0 0.00 0.00 0.00 64 1016.6
20260510144547 77 280 3.0 7.0 0.00 0.00 0.00 65 1016.7
20260510144030 77 263 2.0 4.0 0.00 0.00 0.00 65 1016.8
20260510143528 77 255 1.0 5.0 0.00 0.00 0.00 65 1016.6
20260510143047 77 258 1.0 7.0 0.00 0.00 0.00 67 1016.5
20260510142528 76 207 3.0 7.0 0.00 0.00 0.00 68 1016.4
20260510142029 76 291 1.0 7.0 0.00 0.00 0.00 72 1016.5
20260510141547 76 0 1.0 7.0 0.00 0.00 0.00 71 1016.6
20260510141031 75 232 0.0 3.0 0.00 0.00 0.00 72 1016.6
20260510140529 75 0 1.0 4.0 0.00 0.00 0.00 73 1016.6
20260510140045 75 242 1.0 5.0 0.00 0.00 0.00 71 1016.6
20260510135530 74 225 2.0 5.0 0.00 0.00 0.00 74 1016.5
20260510135028 74 223 1.0 5.0 0.00 0.00 0.00 76 1016.4
20260510134551 73 214 0.0 3.0 0.00 0.00 0.00 76 1016.5
20260510134027 72 252 1.0 5.0 0.00 0.00 0.00 77 1016.6
20260510133530 72 254 2.0 5.0 0.00 0.00 0.00 76 1016.3
20260510133044 72 225 1.0 4.0 0.00 0.00 0.00 76 1016.2
20260510132527 72 227 1.0 5.0 0.00 0.00 0.00 77 1016.3
20260510132029 72 204 1.0 5.0 0.00 0.00 0.00 79 1016.3
20260510131552 71 190 0.0 4.0 0.00 0.00 0.00 80 1016.3
20260510131029 71 0 0.0 4.0 0.00 0.00 0.00 80 1016.3
20260510130529 70 0 1.0 5.0 0.00 0.00 0.00 80 1016.2
20260510130045 70 187 2.0 5.0 0.00 0.00 0.00 80 1016.2
20260510125529 69 208 0.0 2.0 0.00 0.00 0.00 83 1016.3
20260510125029 68 0 0.0 2.0 0.00 0.00 0.00 83 1016.2
20260510124549 67 0 0.0 2.0 0.00 0.00 0.00 83 1016.2
20260510124030 67 0 1.0 3.0 0.00 0.00 0.00 85 1016.1
20260510123529 65 0 0.0 3.0 0.00 0.00 0.00 86 1016.3
20260510123049 64 0 0.0 3.0 0.00 0.00 0.00 88 1016.3
20260510122528 64 0 0.0 3.0 0.00 0.00 0.00 89 1016.2
20260510122028 63 0 0.0 3.0 0.00 0.00 0.00 89 1016.1
20260510121548 62 0 0.0 2.0 0.00 0.00 0.00 92 1016.1
20260510121029 61 0 0.0 4.0 0.00 0.00 0.00 94 1016.0
20260510120529 60 206 0.0 4.0 0.00 0.00 0.00 95 1015.9
20260510120049 59 344 1.0 4.0 0.00 0.00 0.00 96 1016.2
20260510115527 58 0 0.0 2.0 0.00 0.00 0.00 97 1015.9
20260510115029 58 151 0.0 2.0 0.00 0.00 0.00 98 1015.9
20260510114544 57 0 0.0 0.0 0.00 0.00 0.00 98 1015.7
20260510114029 56 0 0.0 0.0 0.00 0.00 0.00 98 1015.5
20260510113529 55 0 0.0 0.0 0.00 0.00 0.00 98 1015.5
20260510113043 54 0 0.0 0.0 0.00 0.00 0.00 98 1015.3
20260510112528 54 0 0.0 0.0 0.00 0.00 0.00 97 1015.2
20260510112029 53 0 0.0 0.0 0.00 0.00 0.00 96 1015.0
20260510111602 52 0 0.0 0.0 0.00 0.00 0.00 96 1015.0
20260510111029 52 0 0.0 0.0 0.00 0.00 0.00 95 1014.9
20260510110529 52 0 0.0 0.0 0.00 0.00 0.00 95 1014.8
20260510110048 53 0 0.0 0.0 0.00 0.00 0.00 95 1014.7
20260510105529 53 0 0.0 0.0 0.00 0.00 0.00 95 1014.6
20260510105029 53 0 0.0 0.0 0.00 0.00 0.00 95 1014.5
20260510104546 53 0 0.0 0.0 0.00 0.00 0.00 96 1014.5
20260510104029 53 0 0.0 0.0 0.00 0.00 0.00 96 1014.2
20260510103528 53 0 0.0 0.0 0.00 0.00 0.00 96 1014.2
20260510103047 53 0 0.0 2.0 0.00 0.00 0.00 96 1014.1
20260510102528 53 0 0.0 2.0 0.00 0.00 0.00 96 1014.0
20260510102031 53 0 0.0 2.0 0.00 0.00 0.00 96 1014.0
20260510101551 53 165 0.0 3.0 0.00 0.00 0.00 96 1014.0
20260510101029 53 0 0.0 5.0 0.00 0.00 0.00 97 1014.1
20260510100528 53 162 1.0 5.0 0.00 0.00 0.00 97 1014.1
20260510100043 53 155 0.0 4.0 0.00 0.00 0.00 97 1014.0
20260510095529 53 0 0.0 6.0 0.00 0.00 0.00 97 1014.2
20260510095030 52 155 1.0 6.0 0.00 0.00 0.00 97 1014.1
20260510094540 52 193 1.0 6.0 0.00 0.00 0.00 97 1014.2
20260510094029 51 156 1.0 4.0 0.00 0.00 0.00 96 1014.1
20260510093529 51 0 0.0 2.0 0.00 0.00 0.00 96 1014.1
20260510093100 51 148 0.0 2.0 0.00 0.00 0.00 96 1014.0
20260510092530 51 148 0.0 2.0 0.00 0.00 0.00 96 1014.0
20260510092029 51 148 1.0 3.0 0.00 0.00 0.00 96 1014.1
20260510091549 51 148 1.0 3.0 0.00 0.00 0.00 96 1014.0
20260510091029 51 148 1.0 3.0 0.00 0.00 0.00 96 1013.9
20260510090528 51 148 1.0 3.0 0.00 0.00 0.00 96 1013.9
20260510090115 51 0 0.0 3.0 0.00 0.00 0.00 96 1013.8
20260510085530 51 149 1.0 3.0 0.00 0.00 0.00 96 1013.8
20260510085027 51 0 0.0 3.0 0.00 0.00 0.00 96 1013.8
20260510084544 50 153 1.0 3.0 0.00 0.00 0.00 96 1013.9
20260510084053 50 153 0.0 2.0 0.00 0.00 0.00 96 1013.9
20260510083532 50 155 0.0 3.0 0.00 0.00 0.00 96 1013.9
20260510083048 50 0 0.0 3.0 0.00 0.00 0.00 96 1014.0
20260510082529 50 0 0.0 3.0 0.00 0.00 0.00 96 1014.0
20260510082028 50 166 0.0 3.0 0.00 0.00 0.00 96 1014.0
20260510081550 50 0 0.0 4.0 0.00 0.00 0.00 96 1013.9
20260510081029 50 153 0.0 4.0 0.00 0.00 0.00 95 1014.0
20260510080529 50 0 0.0 0.0 0.00 0.00 0.00 95 1013.8
20260510080054 50 0 0.0 0.0 0.00 0.00 0.00 95 1013.7
20260510075531 50 0 0.0 0.0 0.00 0.00 0.00 95 1013.6
20260510075029 50 0 0.0 0.0 0.00 0.00 0.00 95 1013.6
20260510074547 50 0 0.0 0.0 0.00 0.00 0.00 95 1013.3
20260510074029 50 0 0.0 0.0 0.00 0.00 0.00 95 1013.2
20260510073530 50 0 0.0 0.0 0.00 0.00 0.00 95 1013.2
20260510073047 50 0 0.0 0.0 0.00 0.00 0.00 95 1013.1
20260510072529 50 0 0.0 2.0 0.00 0.00 0.00 95 1013.1
20260510072031 50 0 0.0 2.0 0.00 0.00 0.00 95 1013.1
20260510071544 50 0 0.0 2.0 0.00 0.00 0.00 95 1013.1
20260510071029 50 0 0.0 2.0 0.00 0.00 0.00 94 1013.2
20260510070531 50 0 0.0 0.0 0.00 0.00 0.00 94 1013.2
20260510070046 51 0 0.0 0.0 0.00 0.00 0.00 94 1013.1
20260510065533 51 0 0.0 0.0 0.00 0.00 0.00 94 1013.0
20260510065029 51 0 0.0 0.0 0.00 0.00 0.00 95 1013.3
20260510064551 51 0 0.0 0.0 0.00 0.00 0.00 95 1013.3
20260510064029 51 0 0.0 0.0 0.00 0.00 0.00 95 1013.2
20260510063530 51 0 0.0 0.0 0.00 0.00 0.00 94 1013.1
20260510063048 51 0 0.0 0.0 0.00 0.00 0.00 94 1013.2
20260510062530 51 0 0.0 0.0 0.00 0.00 0.00 94 1013.1
20260510062027 51 0 0.0 0.0 0.00 0.00 0.00 94 1013.2
20260510061546 52 0 0.0 0.0 0.00 0.00 0.00 93 1013.1
20260510061030 52 0 0.0 0.0 0.00 0.00 0.00 94 1013.1
20260510060530 52 0 0.0 0.0 0.00 0.00 0.00 94 1013.1
20260510060047 52 0 0.0 0.0 0.00 0.00 0.00 94 1013.1
20260510055528 52 0 0.0 0.0 0.00 0.00 0.00 94 1013.2
20260510055029 52 0 0.0 0.0 0.00 0.00 0.00 94 1013.3
20260510054545 52 0 0.0 0.0 0.00 0.00 0.00 94 1013.2
20260510054030 52 0 0.0 0.0 0.00 0.00 0.00 93 1013.3
20260510053530 52 0 0.0 0.0 0.00 0.00 0.00 92 1013.1
20260510053043 52 0 0.0 0.0 0.00 0.00 0.00 92 1013.2
20260510052530 52 0 0.0 0.0 0.00 0.00 0.00 92 1013.2
20260510052029 53 0 0.0 0.0 0.00 0.00 0.00 92 1013.2
20260510051545 53 0 0.0 0.0 0.00 0.00 0.00 92 1013.2
20260510051029 53 0 0.0 0.0 0.00 0.00 0.00 92 1013.2
20260510050527 53 0 0.0 0.0 0.00 0.00 0.00 92 1013.2
20260510050047 53 0 0.0 0.0 0.00 0.00 0.00 92 1013.2
20260510045532 53 0 0.0 0.0 0.00 0.00 0.00 92 1013.3
20260510045031 53 0 0.0 0.0 0.00 0.00 0.00 91 1013.2
20260510044605 54 0 0.0 0.0 0.00 0.00 0.00 91 1013.2
20260510044029 54 0 0.0 0.0 0.00 0.00 0.00 91 1013.1
20260510043529 54 0 0.0 0.0 0.00 0.00 0.00 91 1013.1
20260510043047 54 0 0.0 0.0 0.00 0.00 0.00 90 1013.1
20260510042529 54 0 0.0 1.0 0.00 0.00 0.00 90 1013.2
20260510042029 54 0 0.0 1.0 0.00 0.00 0.00 90 1013.2
20260510041547 55 0 0.0 1.0 0.00 0.00 0.00 90 1013.2
20260510041032 55 0 0.0 0.0 0.00 0.00 0.00 90 1013.2
20260510040528 55 0 0.0 0.0 0.00 0.00 0.00 90 1013.2
20260510040053 55 0 0.0 0.0 0.00 0.00 0.00 90 1013.1
20260510035529 55 0 0.0 0.0 0.00 0.00 0.00 90 1013.2
20260510035030 55 0 0.0 0.0 0.00 0.00 0.00 89 1013.1
20260510034549 56 0 0.0 0.0 0.00 0.00 0.00 89 1013.1
20260510034028 56 0 0.0 0.0 0.00 0.00 0.00 89 1013.2
20260510033527 56 0 0.0 0.0 0.00 0.00 0.00 88 1013.1
20260510033047 56 0 0.0 0.0 0.00 0.00 0.00 87 1013.2
20260510032530 56 0 0.0 0.0 0.00 0.00 0.00 87 1013.3
20260510032029 56 0 0.0 0.0 0.00 0.00 0.00 86 1013.1
20260510031547 56 0 0.0 0.0 0.00 0.00 0.00 86 1013.1
20260510031029 57 0 0.0 0.0 0.00 0.00 0.00 85 1013.1
20260510030530 57 0 0.0 0.0 0.00 0.00 0.00 85 1013.2
20260510030045 57 0 0.0 0.0 0.00 0.00 0.00 84 1013.0
20260510025529 57 0 0.0 0.0 0.00 0.00 0.00 84 1013.0
20260510025028 58 0 0.0 0.0 0.00 0.00 0.00 84 1013.0
20260510024543 58 0 0.0 0.0 0.00 0.00 0.00 84 1013.0
20260510024029 58 0 0.0 0.0 0.00 0.00 0.00 83 1012.9
20260510023531 58 0 0.0 0.0 0.00 0.00 0.00 82 1012.9
20260510023051 59 0 0.0 0.0 0.00 0.00 0.00 82 1012.7
20260510022529 59 0 0.0 0.0 0.00 0.00 0.00 82 1012.6
20260510022030 59 0 0.0 0.0 0.00 0.00 0.00 81 1012.5
20260510021548 59 0 0.0 0.0 0.00 0.00 0.00 80 1012.4
20260510021028 60 0 0.0 0.0 0.00 0.00 0.00 80 1012.4
20260510020530 60 0 0.0 0.0 0.00 0.00 0.00 80 1012.3
20260510020050 60 0 0.0 0.0 0.00 0.00 0.00 79 1012.3
20260510015529 60 0 0.0 0.0 0.00 0.00 0.00 78 1012.3
20260510015030 61 0 0.0 0.0 0.00 0.00 0.00 77 1012.2
20260510014551 61 0 0.0 0.0 0.00 0.00 0.00 76 1012.1
20260510014030 62 0 0.0 0.0 0.00 0.00 0.00 75 1012.1
20260510013529 62 0 0.0 0.0 0.00 0.00 0.00 75 1012.0
20260510013046 63 0 0.0 0.0 0.00 0.00 0.00 74 1012.0
20260510012531 63 0 0.0 0.0 0.00 0.00 0.00 74 1011.9
20260510012030 64 0 0.0 0.0 0.00 0.00 0.00 73 1011.7
20260510011543 65 0 0.0 0.0 0.00 0.00 0.00 72 1011.7
20260510011029 65 0 0.0 0.0 0.00 0.00 0.00 71 1011.6
20260510010530 66 0 0.0 0.0 0.00 0.00 0.00 69 1011.5
20260510010041 67 0 0.0 0.0 0.00 0.00 0.00 68 1011.4
20260510005529 68 0 0.0 0.0 0.00 0.00 0.00 67 1011.4
20260510005029 68 0 0.0 0.0 0.00 0.00 0.00 66 1011.3
20260510004553 69 0 0.0 0.0 0.00 0.00 0.00 65 1011.3
20260510004029 70 0 0.0 0.0 0.00 0.00 0.00 63 1011.3
20260510003530 70 0 0.0 0.0 0.00 0.00 0.00 62 1011.3
20260510003048 71 0 0.0 0.0 0.00 0.00 0.00 60 1011.2
20260510002530 72 0 0.0 2.0 0.00 0.00 0.00 56 1011.2
20260510002029 72 0 0.0 2.0 0.00 0.00 0.00 55 1011.2
20260510001546 72 0 0.0 2.0 0.00 0.00 0.00 55 1011.1
20260510001029 72 212 0.0 4.0 0.00 0.00 0.00 53 1011.1
20260510000529 73 0 0.0 4.0 0.00 0.00 0.00 53 1011.1
20260510000045 73 197 0.0 4.0 0.00 0.00 0.00 52 1011.2
20260509235529 73 215 1.0 3.0 0.00 0.00 0.00 52 1011.1
20260509235029 73 0 0.0 3.0 0.00 0.00 0.00 52 1010.9
20260509234547 74 0 0.0 5.0 0.00 0.00 0.00 51 1011.0
20260509234029 74 238 1.0 5.0 0.00 0.00 0.00 52 1011.0
20260509233530 74 196 1.0 4.0 0.00 0.00 0.00 51 1010.9
20260509233101 74 207 1.0 4.0 0.00 0.00 0.00 50 1011.0
20260509232526 74 0 1.0 3.0 0.00 0.00 0.00 50 1011.0
20260509232028 74 0 1.0 3.0 0.00 0.00 0.00 49 1011.0
20260509231548 75 0 1.0 3.0 0.00 0.00 0.00 51 1011.0
20260509231027 75 0 0.0 2.0 0.00 0.00 0.00 50 1011.0
20260509230529 75 242 0.0 2.0 0.00 0.00 0.00 49 1010.9
20260509230038 75 0 0.0 2.0 0.00 0.00 0.00 49 1010.9
20260509225529 75 0 0.0 3.0 0.00 0.00 0.00 48 1011.0
20260509225026 76 0 0.0 3.0 0.00 0.00 0.00 49 1010.8
20260509224546 76 223 0.0 3.0 0.00 0.00 0.00 49 1010.9
20260509224026 76 301 0.0 4.0 0.00 0.00 0.00 47 1010.9
20260509223526 76 308 1.0 6.0 0.00 0.00 0.00 47 1011.0
20260509223046 77 214 0.0 6.0 0.00 0.00 0.00 49 1010.9
20260509222526 77 213 1.0 5.0 0.00 0.00 0.00 45 1010.9
20260509222028 77 328 0.0 8.0 0.00 0.00 0.00 45 1010.9
20260509221545 77 142 4.0 8.0 0.00 0.00 0.00 45 1010.8
20260509221026 77 207 1.0 4.0 0.00 0.00 0.00 46 1010.7
20260509220526 78 0 0.0 2.0 0.00 0.00 0.00 45 1010.8
20260509220043 78 0 0.0 2.0 0.00 0.00 0.00 45 1010.8
20260509215527 79 0 0.0 3.0 0.00 0.00 0.00 43 1010.7
20260509215028 79 0 0.0 4.0 0.00 0.00 0.00 45 1010.7
20260509214542 79 224 1.0 4.0 0.00 0.00 0.00 46 1010.6
20260509214031 79 262 0.0 4.0 0.00 0.00 0.00 46 1010.6
20260509213529 78 0 0.0 5.0 0.00 0.00 0.00 48 1010.5
20260509213050 78 322 1.0 6.0 0.00 0.00 0.00 47 1010.4
20260509212528 78 298 2.0 6.0 0.00 0.00 0.00 48 1010.3
20260509212027 78 302 2.0 5.0 0.00 0.00 0.00 47 1010.4
20260509211552 78 347 2.0 5.0 0.00 0.00 0.00 47 1010.4
20260509211029 79 57 0.0 5.0 0.00 0.00 0.00 49 1010.5
20260509210527 79 29 1.0 5.0 0.00 0.00 0.00 44 1010.4
20260509210047 80 329 1.0 5.0 0.00 0.00 0.00 45 1010.5
20260509205528 80 196 1.0 4.0 0.00 0.00 0.00 46 1010.5
20260509205030 80 301 1.0 3.0 0.00 0.00 0.00 46 1010.4
20260509204547 80 238 1.0 7.0 0.00 0.00 0.00 51 1010.6
20260509204029 80 0 0.0 7.0 0.00 0.00 0.00 46 1010.5
20260509203528 80 143 3.0 7.0 0.00 0.00 0.00 50 1010.6
20260509203106 80 207 0.0 4.0 0.00 0.00 0.00 50 1010.5
20260509202528 80 345 0.0 4.0 0.00 0.00 0.00 49 1010.6
20260509202029 80 201 1.0 4.0 0.00 0.00 0.00 53 1010.6
20260509201540 80 346 1.0 4.0 0.00 0.00 0.00 51 1010.7
20260509201028 79 179 1.0 4.0 0.00 0.00 0.00 51 1010.7
20260509200529 79 213 0.0 4.0 0.00 0.00 0.00 55 1010.8
20260509200052 79 282 1.0 5.0 0.00 0.00 0.00 53 1010.8
20260509195529 79 220 1.0 6.0 0.00 0.00 0.00 53 1010.8
20260509195030 79 197 1.0 6.0 0.00 0.00 0.00 53 1011.0
20260509194545 79 142 2.0 6.0 0.00 0.00 0.00 52 1011.1
20260509194029 79 0 1.0 6.0 0.00 0.00 0.00 53 1011.1
20260509193529 79 188 2.0 6.0 0.00 0.00 0.00 56 1011.3
20260509193054 78 242 1.0 4.0 0.00 0.00 0.00 58 1011.2
20260509192527 78 70 0.0 4.0 0.00 0.00 0.00 54 1011.2
20260509192027 78 257 1.0 5.0 0.00 0.00 0.00 56 1011.3
20260509191556 78 226 1.0 5.0 0.00 0.00 0.00 58 1011.3
20260509191028 78 210 0.0 6.0 0.00 0.00 0.00 57 1011.4
20260509190525 78 90 1.0 7.0 0.00 0.00 0.00 53 1011.4
20260509190048 78 217 3.0 7.0 0.00 0.00 0.00 57 1011.5
20260509185529 78 0 0.0 6.0 0.00 0.00 0.00 57 1011.4
20260509185031 78 253 2.0 9.0 0.00 0.00 0.00 59 1011.4
20260509184545 78 218 3.0 9.0 0.00 0.00 0.00 62 1011.4
20260509184028 77 146 1.0 6.0 0.00 0.00 0.00 63 1011.2
20260509183526 77 57 1.0 6.0 0.00 0.00 0.00 57 1011.2
20260509183047 77 257 2.0 6.0 0.00 0.00 0.00 62 1011.2
20260509182526 76 246 2.0 6.0 0.00 0.00 0.00 64 1011.2
20260509182026 75 192 1.0 4.0 0.00 0.00 0.00 62 1011.2
20260509181544 75 42 1.0 4.0 0.00 0.00 0.00 63 1011.2
20260509181026 75 294 1.0 4.0 0.00 0.00 0.00 62 1011.2
20260509180529 74 12 2.0 5.0 0.00 0.00 0.00 62 1011.2
20260509180043 74 0 1.0 5.0 0.00 0.00 0.00 63 1011.2
20260509175527 75 27 2.0 5.0 0.00 0.00 0.00 64 1011.1
20260509175026 74 0 1.0 5.0 0.00 0.00 0.00 63 1011.1
20260509174549 74 335 2.0 5.0 0.00 0.00 0.00 64 1011.2
20260509174026 74 155 0.0 4.0 0.00 0.00 0.00 67 1011.2
20260509173529 73 106 1.0 4.0 0.00 0.00 0.00 66 1011.2
20260509173040 73 360 1.0 6.0 0.00 0.00 0.00 65 1011.2
20260509172529 73 302 2.0 6.0 0.00 0.00 0.00 66 1011.3
20260509172029 73 92 1.0 5.0 0.00 0.00 0.00 64 1011.4
20260509171547 73 43 2.0 5.0 0.00 0.00 0.00 65 1011.3
20260509171028 73 30 2.0 9.0 0.00 0.00 0.00 64 1011.4
20260509170530 74 350 3.0 9.0 0.00 0.00 0.00 64 1011.3
20260509170054 74 21 1.0 5.0 0.00 0.00 0.00 65 1011.4
20260509165529 74 70 2.0 5.0 0.00 0.00 0.00 64 1011.4